Weather History for KFMN - January, 2014

Change the Weather History Date:

Thursday, January 16, 2014

  Actual Average Record
Temperature  
Mean Temperature 34 °F -  
Max Temperature 52 °F 42 °F 64 °F (2000)
Min Temperature 15 °F 20 °F 1 °F (2013)
Degree Days  
Heating Degree Days 32    
Moisture  
Dew Point 10 °F    
Average Humidity 41    
Maximum Humidity 74    
Minimum Humidity 9    
Precipitation  
Precipitation 0.00 in - - ()
Sea Level Pressure  
Sea Level Pressure 30.30 in    
Wind  
Wind Speed 10 mph (NNW)    
Max Wind Speed 31 mph    
Max Gust Speed 39 mph    
Visibility 10 miles    
Events      
Averages and records for this station are not official NWS values.
T = Trace of Precipitation, MM = Missing Value Source: NWS Daily Summary

Daily Weather History Graph

Daily Weather History Graph

Search for Another Location

Airport or City:

Trip Planner

Search our weather history database for the weather conditions in past years. The results will help you decide how hot, cold, wet, or windy it might be!

Date:

Astronomy

Jan. 16, 2014 Rise Set
Actual Time 7:24 AM MST 5:21 PM MST
Civil Twilight 6:56 AM MST 5:49 PM MST
Nautical Twilight 6:24 AM MST 6:21 PM MST
Astronomical Twilight 5:53 AM MST 6:52 PM MST
Moon 6:13 PM MST (1/16) 7:21 AM MST (1/16)
Length of Visible Light 10h 53m
Length of Day
9h 57m
Full, 100% of the Moon is Illuminated
Jan 16
Full
Jan 23
Last Quarter
Jan 30
New
Feb 6
First Quarter
Feb 14
Full

Hourly Weather History & Observations

Time (MST) Temp. Windchill Dew Point Humidity Pressure Visibility Wind Dir Wind Speed Gust Speed Precip Events Conditions
12:53 AM 25.0 °F 14.8 °F 10.0 °F 53% 30.29 in 10.0 mi East 10.4 mph - N/A   Clear
1:53 AM 23.0 °F 14.7 °F 10.9 °F 60% 30.30 in 10.0 mi ENE 6.9 mph - N/A   Clear
2:53 AM 23.0 °F 13.9 °F 12.0 °F 63% 30.30 in 10.0 mi East 8.1 mph - N/A   Clear
3:53 AM 19.9 °F 12.1 °F 10.0 °F 65% 30.31 in 10.0 mi East 5.8 mph - N/A   Clear
4:53 AM 19.9 °F 11.1 °F 10.9 °F 68% 30.31 in 10.0 mi East 6.9 mph - N/A   Clear
5:53 AM 17.1 °F 6.6 °F 9.0 °F 71% 30.35 in 10.0 mi NE 8.1 mph - N/A   Clear
6:53 AM 17.1 °F 8.7 °F 9.0 °F 71% 30.36 in 10.0 mi East 5.8 mph - N/A   Clear
7:53 AM 17.1 °F 7.6 °F 10.0 °F 74% 30.37 in 10.0 mi NE 6.9 mph - N/A   Clear
8:53 AM 24.1 °F 14.4 °F 12.9 °F 62% 30.39 in 10.0 mi East 9.2 mph - N/A   Clear
9:53 AM 28.0 °F 20.0 °F 14.0 °F 56% 30.39 in 10.0 mi East 8.1 mph - N/A   Clear
10:53 AM 34.0 °F 28.8 °F 14.0 °F 44% 30.36 in 10.0 mi ESE 5.8 mph - N/A   Clear
11:53 AM 37.9 °F - 12.9 °F 36% 30.32 in 10.0 mi Calm Calm - N/A   Clear
12:53 PM 43.0 °F 41.3 °F 14.0 °F 31% 30.29 in 10.0 mi Variable 3.5 mph - N/A   Clear
1:53 PM 51.1 °F - 9.0 °F 18% 30.22 in 10.0 mi West 21.9 mph 26.5 mph N/A   Clear
2:01 PM 51.1 °F - 9.0 °F 18% 30.19 in 10.0 mi West 21.9 mph 31.1 mph N/A   Clear
2:53 PM 52.0 °F - 9.0 °F 18% 30.19 in 10.0 mi West 21.9 mph 31.1 mph N/A   Clear
3:53 PM 51.1 °F - 8.1 °F 18% 30.20 in 10.0 mi West 31.1 mph 39.1 mph N/A   Clear
4:53 PM 48.0 °F - 8.1 °F 20% 30.23 in 10.0 mi West 21.9 mph 31.1 mph N/A   Clear
5:53 PM 44.1 °F 37.1 °F 7.0 °F 22% 30.27 in 10.0 mi West 15.0 mph - N/A   Clear
6:53 PM 41.0 °F 33.9 °F 8.1 °F 26% 30.30 in 10.0 mi West 12.7 mph - N/A   Clear
7:53 PM 37.9 °F 30.5 °F 9.0 °F 30% 30.32 in 10.0 mi WSW 11.5 mph - N/A   Clear
8:53 PM 35.1 °F 26.9 °F 9.0 °F 34% 30.32 in 10.0 mi West 11.5 mph - N/A   Clear
9:53 PM 32.0 °F 23.6 °F 10.0 °F 40% 30.34 in 10.0 mi WSW 10.4 mph - N/A   Clear
10:53 PM 28.9 °F 22.8 °F 9.0 °F 43% 30.32 in 10.0 mi WNW 5.8 mph - N/A   Clear
11:53 PM 21.9 °F - 6.1 °F 51% 30.34 in 10.0 mi Calm Calm - N/A   Clear